Regional Weather Roundup
Issued by NWS New Orleans/Baton Rouge, LA

Home | Current Version | Previous Version | Text Only | Print | Product List | Glossary Off
Versions: 1 2 3 4 5 6 7 8 9 10 11 12 13 14 15 16 17 18 19 20 21 22 23 24 25 26 27 28 29 30 31 32 33 34 35 36 37 38 39 40 41 42 43 44 45 46 47 48 49 50

833
ASUS44 KLIX 151601
RWRLIX
NEW ORLEANS REGIONAL WEATHER ROUNDUP
NATIONAL WEATHER SERVICE NEW ORLEANS LA
1100 AM CDT TUE APR 15 2014

NOTE: "FAIR" INDICATES FEW OR NO CLOUDS BELOW 12,000 FEET WITH NO
      SIGNIFICANT WEATHER AND/OR OBSTRUCTIONS TO VISIBILITY.
      SKY/WX - SKY CONDITION AND SIGNIFICANT WEATHER.
      TMP - AIR TEMPERATURE.     DP    - DEWPOINT TEMPERATURE.
      RH  - RELATIVE HUMIDITY.   PRES  - PRESSURE.
      HI  - HEAT INDEX.          WCI   - WIND CHILL INDEX.

*  THESE STATIONS ARE NOT NWS OR FAA STATIONS AND ARE NOT UNDER
   NWS QUALITY CONTROL.

LAZ038-040-048-061>063-065>067-069-151700-
SOUTHEAST LOUISIANA

CITY           SKY/WX    TMP DP  RH WIND       PRES   REMARKS
N.O. AUDUBON     N/A     50  41  71 MISG        N/A
N.O. INTL ARPT PTSUNNY   49  38  65 N23G31    30.15R
N.O. LAKEFRONT CLOUDY    49  40  71 N29G37    30.15R
N.O. DOWNTOWN* CLOUDY    48  34  57 N10G24    30.15R
SLIDELL        CLOUDY    49  37  63 NW20G29   30.14R
BATON ROUGE    MOSUNNY   53  36  52 NW10      30.20R
BOOTHVILLE     CLOUDY    50  42  74 N22G31    30.10R
BELLE CHASSE   CLOUDY    50  37  61 N14G31    30.12R
BOGALUSA*        N/A     51  36  57 N24G35    30.17R
GALLIANO*      NOT AVBL
NEW ROADS*     NOT AVBL
GONZALES*        N/A     50  37  62 N15G25    30.18S
HAMMOND*       NOT AVBL
HOUMA*         CLOUDY    52  37  58 N18G32    30.15R
PORT FOURCHON* CLOUDY    50  41  71 N18G32    30.15R

$$

MSZ070-080>082-151700-
SOUTHERN MISSISSIPPI

CITY           SKY/WX    TMP DP  RH WIND       PRES   REMARKS
MCCOMB         SUNNY     50  30  46 N20G28    30.18R
GULFPORT       CLOUDY    50  38  63 N23G31    30.10R
BILOXI         NOT AVBL
PASCAGOULA     CLOUDY    49  41  74 N18G30    30.07R

$$

COASTAL OBSERVATIONS
LAKE AND NEARSHORE STATIONS

STATION/POSITION TIME  TEMP    WIND        PRES    WAVE
                       AIR SEA DIR/SP/G            HT/PER
                 (UTC) (F)     (DEG/KT/KT) (MB)    (FT/S)
PASCAGOULA       1500   48     330/ 15/ 22 1017.2
WAVELAND YACHT   1500   47 64  350/ 23/ 28 1018.4
GRAND ISLE       1500   51 68  350/ 19/ 29 1020.1
SOUTHWEST PASS   1500   53 59  350/ 26/ 31 1019.1
NEW CANAL        1500   49 65  360/ 24/ 29 1021.0
SHELL BEACH      1500   48 65  340/ 27/ 32 1019.5

OFFSHORE STATIONS

STATION/POSITION TIME  TEMP    WIND        PRES    WAVE
                       AIR SEA DIR/SP/G            HT/PER
                 (UTC) (F)     (DEG/KT/KT) (MB)    (FT/S)
64 S DAUPHIN ISL 1600          VRB 27        N/A

$$




USA.gov is the U.S. government's official web portal to all federal, state and local government web resources and services.